EC2UT-13 Weather Reports


time (UTC)temp
C
wind
direction
speed
KPH
gust
KPH
rain 1hr
cm
rain 24hr
cm
rain mn
cm
humidity
%
barometer
mb
20260507113517 18 68 4.8 14.5 0.00 0.00 0.00 45 1013.0
20260507112516 18 113 4.8 16.1 0.00 0.00 0.00 46 1013.3
20260507111517 18 90 6.4 16.1 0.00 0.00 0.00 45 1013.6
20260507110517 18 113 6.4 16.1 0.00 0.00 0.00 44 1013.6
20260507105537 18 113 3.2 9.7 0.00 0.00 0.00 44 1013.9
20260507104516 17 90 3.2 11.3 0.00 0.00 0.00 45 1014.1
20260507103516 17 113 4.8 12.9 0.00 0.00 0.00 46 1014.1
20260507102516 16 113 3.2 11.3 0.00 0.00 0.00 47 1014.1
20260507101517 16 113 8.0 17.7 0.00 0.00 0.00 46 1014.2
20260507100517 16 180 3.2 12.9 0.00 0.00 0.00 47 1014.2
20260507095536 17 90 3.2 11.3 0.00 0.00 0.00 44 1014.4
20260507094516 16 180 1.6 6.4 0.00 0.00 0.00 46 1014.4
20260507093517 15 113 1.6 4.8 0.00 0.00 0.00 47 1014.5
20260507092516 14 0 3.2 6.4 0.00 0.00 0.00 49 1014.6
20260507091516 13 45 3.2 9.7 0.00 0.00 0.00 50 1014.5
20260507090516 13 338 3.2 6.4 0.00 0.00 0.00 51 1014.7
20260507085516 13 338 3.2 6.4 0.00 0.00 0.00 51 1014.6
20260507084517 12 0.0 3.2 0.00 0.00 0.00 53 1014.8
20260507083537 12 45 3.2 6.4 0.00 0.00 0.00 54 1014.8
20260507082556 11 0 1.6 6.4 0.00 0.00 0.00 56 1014.8
20260507081516 11 45 3.2 4.8 0.00 0.00 0.00 57 1014.8
20260507080516 10 23 4.8 8.0 0.00 0.00 0.00 57 1014.8
20260507075517 10 23 3.2 6.4 0.00 0.00 0.00 57 1014.9
20260507074516 10 45 8.0 11.3 0.00 0.00 0.00 57 1014.9
20260507073516 10 68 8.0 9.7 0.00 0.00 0.00 56 1014.9
20260507072516 10 68 4.8 11.3 0.00 0.00 0.00 56 1015.0
20260507071516 10 45 4.8 8.0 0.00 0.00 0.00 55 1014.9
20260507070516 10 338 1.6 4.8 0.00 0.00 0.00 56 1014.9
20260507065516 10 45 3.2 4.8 0.00 0.00 0.00 56 1015.0
20260507064517 10 45 3.2 6.4 0.00 0.00 0.00 56 1014.9
20260507063516 10 338 4.8 9.7 0.00 0.00 0.00 57 1014.7
20260507062516 10 0 6.4 11.3 0.00 0.00 0.00 57 1014.7
20260507061537 10 0 4.8 8.0 0.00 0.00 0.00 58 1014.8
20260507060516 10 0 4.8 8.0 0.00 0.00 0.00 58 1014.7
20260507055517 10 338 4.8 6.4 0.00 0.00 0.00 58 1014.6
20260507054516 10 338 6.4 9.7 0.00 0.00 0.00 58 1014.5
20260507053536 10 0 3.2 8.0 0.00 0.00 0.00 58 1014.4
20260507052516 9 338 4.8 8.0 0.00 0.00 0.00 58 1014.4
20260507051516 10 338 8.0 12.9 0.00 0.00 0.00 58 1014.3
20260507050516 10 0 4.8 12.9 0.00 0.00 0.00 59 1014.3
20260507045516 10 23 6.4 9.7 0.00 0.00 0.00 58 1014.1
20260507044516 10 0 8.0 12.9 0.00 0.00 0.00 58 1014.2
20260507043536 10 338 9.7 16.1 0.00 0.00 0.00 58 1014.2
20260507042536 10 338 6.4 9.7 0.00 0.00 0.00 58 1014.2
20260507041516 10 338 6.4 11.3 0.00 0.00 0.00 58 1014.1
20260507040516 10 338 8.0 12.9 0.00 0.00 0.00 58 1014.2
20260507035516 11 338 6.4 8.0 0.00 0.00 0.00 58 1014.2
20260507034516 11 315 3.2 6.4 0.00 0.00 0.00 58 1014.1
20260507033516 11 338 4.8 14.5 0.00 0.00 0.00 58 1014.0
20260507032516 11 293 4.8 12.9 0.00 0.00 0.00 58 1014.0
20260507031518 11 293 3.2 11.3 0.00 0.00 0.00 57 1014.1
20260507030539 11 293 4.8 9.7 0.00 0.00 0.00 57 1014.1
20260507025539 11 315 3.2 9.7 0.00 0.00 0.00 58 1014.1
20260507024516 11 315 3.2 8.0 0.00 0.00 0.00 58 1014.1
20260507023518 11 315 3.2 8.0 0.00 0.00 0.00 58 1014.1
20260507022518 11 293 3.2 6.4 0.00 0.00 0.00 58 1014.1
20260507021517 11 293 1.6 6.4 0.00 0.00 0.00 58 1014.0
20260507020518 11 293 3.2 6.4 0.00 0.00 0.00 58 1014.0
20260507015558 11 338 4.8 12.9 0.00 0.00 0.00 57 1013.9
20260507014518 11 315 6.4 12.9 0.00 0.00 0.00 57 1014.0
20260507013518 11 293 4.8 9.7 0.00 0.00 0.00 57 1014.0
20260507012538 12 293 6.4 12.9 0.00 0.00 0.00 57 1013.9
20260507011518 12 293 4.8 12.9 0.00 0.00 0.00 57 1014.0
20260507010518 12 315 8.0 14.5 0.00 0.00 0.00 57 1014.0
20260507005518 12 338 6.4 16.1 0.00 0.00 0.00 57 1014.2
20260507004518 12 293 6.4 12.9 0.00 0.00 0.00 56 1014.1
20260507003518 12 293 8.0 14.5 0.00 0.00 0.00 55 1014.2
20260507002538 12 293 9.7 19.3 0.00 0.00 0.00 55 1014.3
20260507001518 12 293 9.7 19.3 0.00 0.00 0.00 54 1014.1
20260507000518 13 270 12.9 20.9 0.00 0.00 0.00 54 1014.2
20260506235517 13 270 12.9 19.3 0.00 0.00 0.00 54 1014.4
20260506234518 13 270 12.9 24.1 0.00 0.00 0.00 55 1014.4
20260506233518 13 293 11.3 24.1 0.00 0.00 0.00 55 1014.2
20260506232518 13 270 9.7 19.3 0.00 0.00 0.00 55 1014.3
20260506231538 13 270 11.3 22.5 0.00 0.00 0.00 55 1014.1
20260506230517 13 270 12.9 22.5 0.00 0.00 0.00 55 1013.9
20260506225538 13 270 11.3 22.5 0.00 0.00 0.00 55 1014.0
20260506224517 13 293 12.9 19.3 0.00 0.00 0.00 55 1013.9
20260506223518 13 293 8.0 14.5 0.00 0.00 0.00 55 1013.9
20260506222518 13 293 11.3 19.3 0.00 0.00 0.00 54 1014.0
20260506221517 13 293 9.7 19.3 0.00 0.00 0.00 53 1013.8
20260506220518 13 270 11.3 24.1 0.00 0.00 0.00 53 1013.8
20260506215517 14 270 11.3 19.3 0.00 0.00 0.00 52 1014.0
20260506214517 14 248 6.4 12.9 0.00 0.00 0.00 51 1013.9
20260506213517 15 293 6.4 17.7 0.00 0.00 0.00 50 1013.8
20260506212538 15 270 8.0 19.3 0.00 0.00 0.00 49 1013.8
20260506211517 15 293 8.0 20.9 0.00 0.00 0.00 48 1013.8
20260506210517 15 293 8.0 14.5 0.00 0.00 0.00 47 1013.6
20260506205517 15 293 8.0 17.7 0.00 0.00 0.00 46 1013.6
20260506204537 16 315 9.7 17.7 0.00 0.00 0.00 46 1013.4
20260506203517 16 315 8.0 20.9 0.00 0.00 0.00 45 1013.3
20260506202517 16 293 6.4 14.5 0.00 0.00 0.00 44 1013.3
20260506201517 16 315 6.4 12.9 0.00 0.00 0.00 44 1013.3
20260506200517 16 270 6.4 16.1 0.00 0.00 0.00 43 1013.2
20260506195517 17 315 6.4 14.5 0.00 0.00 0.00 42 1012.9
20260506194557 17 315 8.0 16.1 0.00 0.00 0.00 41 1012.8
20260506193538 17 315 9.7 16.1 0.00 0.00 0.00 40 1012.7
20260506192517 17 315 9.7 17.7 0.00 0.00 0.00 38 1012.6
20260506191518 18 315 8.0 20.9 0.00 0.00 0.00 38 1012.5
20260506190517 18 315 11.3 17.7 0.00 0.00 0.00 36 1012.4
20260506185517 18 293 9.7 17.7 0.00 0.00 0.00 34 1012.3
20260506184537 18 338 12.9 20.9 0.00 0.00 0.00 32 1012.2
20260506183517 18 338 14.5 24.1 0.00 0.00 0.00 32 1012.2
20260506182517 18 338 16.1 25.7 0.00 0.00 0.00 31 1012.0
20260506181517 19 315 20.9 30.6 0.00 0.00 0.00 31 1012.0
20260506180517 19 315 16.1 25.7 0.00 0.00 0.00 30 1012.0
20260506175517 19 338 14.5 25.7 0.00 0.00 0.00 30 1011.8
20260506174517 19 315 12.9 25.7 0.00 0.00 0.00 31 1011.8
20260506173517 19 338 19.3 33.8 0.00 0.00 0.00 31 1011.8
20260506172517 20 338 16.1 32.2 0.00 0.00 0.00 31 1011.8
20260506171517 20 315 14.5 25.7 0.00 0.00 0.00 30 1011.8
20260506170516 20 338 12.9 22.5 0.00 0.00 0.00 31 1011.8
20260506165517 20 315 12.9 20.9 0.00 0.00 0.00 31 1011.8
20260506164517 20 338 8.0 17.7 0.00 0.00 0.00 31 1011.9
20260506163517 20 315 6.4 14.5 0.00 0.00 0.00 29 1011.9
20260506162537 20 338 8.0 17.7 0.00 0.00 0.00 31 1011.9
20260506161517 20 0 9.7 24.1 0.00 0.00 0.00 28 1012.1
20260506160516 20 315 4.8 12.9 0.00 0.00 0.00 30 1012.2
20260506155517 20 180 8.0 20.9 0.00 0.00 0.00 31 1012.1
20260506154517 20 338 11.3 17.7 0.00 0.00 0.00 30 1012.2
20260506153537 20 293 9.7 19.3 0.00 0.00 0.00 30 1012.2
20260506152517 20 293 6.4 19.3 0.00 0.00 0.00 30 1012.3
20260506151537 20 293 9.7 24.1 0.00 0.00 0.00 31 1012.3
20260506150517 20 338 9.7 20.9 0.00 0.00 0.00 31 1012.5
20260506145517 20 248 8.0 19.3 0.00 0.00 0.00 30 1012.5
20260506144517 20 270 8.0 20.9 0.00 0.00 0.00 29 1012.6
20260506143517 20 293 4.8 11.3 0.00 0.00 0.00 30 1012.8
20260506142516 20 293 6.4 14.5 0.00 0.00 0.00 29 1012.8
20260506141516 20 293 9.7 19.3 0.00 0.00 0.00 29 1012.9
20260506140517 19 225 6.4 14.5 0.00 0.00 0.00 32 1013.1
20260506135517 19 270 11.3 22.5 0.00 0.00 0.00 31 1013.3
20260506134516 19 270 9.7 17.7 0.00 0.00 0.00 32 1013.5
20260506133516 19 203 8.0 14.5 0.00 0.00 0.00 32 1013.4
20260506132516 19 270 8.0 19.3 0.00 0.00 0.00 33 1013.6
20260506131537 18 180 8.0 16.1 0.00 0.00 0.00 34 1013.6
20260506130517 18 270 9.7 20.9 0.00 0.00 0.00 33 1013.5
20260506125517 18 225 6.4 16.1 0.00 0.00 0.00 34 1013.7
20260506124516 18 293 11.3 25.7 0.00 0.00 0.00 33 1013.7
20260506123537 18 225 8.0 16.1 0.00 0.00 0.00 34 1013.7
20260506122517 18 270 9.7 20.9 0.00 0.00 0.00 37 1013.8
20260506121516 17 225 11.3 20.9 0.00 0.00 0.00 36 1013.8
20260506120516 17 270 11.3 22.5 0.00 0.00 0.00 37 1013.9
20260506115516 17 315 4.8 16.1 0.00 0.00 0.00 39 1014.1
20260506114516 17 293 6.4 17.7 0.00 0.00 0.00 40 1014.2